GW0378 Weather Reports


time (UTC)temp
C
wind
direction
speed
KPH
gust
KPH
rain 1hr
cm
rain 24hr
cm
rain mn
cm
humidity
%
barometer
mb
20260506190557 15 312 8.0 12.9 0.00 0.00 0.00 41 1015.9
20260506190054 14 23 1.6 11.3 0.00 0.00 0.00 46 1016.0
20260506185551 15 279 4.8 8.0 0.00 0.00 0.00 45 1016.1
20260506185047 14 36 3.2 8.0 0.00 0.00 0.00 43 1016.2
20260506184545 13 66 0.0 12.9 0.00 0.00 0.00 42 1016.1
20260506184042 13 7 1.6 9.7 0.00 0.00 0.00 42 1016.4
20260506183538 12 248 3.2 9.7 0.00 0.00 0.00 49 1016.6
20260506183035 13 78 3.2 8.0 0.00 0.00 0.00 42 1016.5
20260506182532 12 281 3.2 9.7 0.00 0.00 0.00 46 1016.5
20260506182029 12 292 3.2 8.0 0.00 0.00 0.00 47 1016.6
20260506181527 12 300 8.0 9.7 0.00 0.00 0.00 45 1016.5
20260506181024 12 188 3.2 6.4 0.00 0.00 0.00 43 1016.7
20260506180520 12 294 6.4 8.0 0.00 0.00 0.00 47 1016.6
20260506180017 11 330 6.4 11.3 0.00 0.00 0.00 47 1016.7
20260506175513 11 250 6.4 8.0 0.00 0.00 0.00 46 1016.8
20260506175010 12 270 1.6 6.4 0.00 0.00 0.00 48 1017.0
20260506174508 11 243 0.0 6.4 0.00 0.00 0.00 45 1017.1
20260506174004 11 246 6.4 9.7 0.00 0.00 0.00 46 1016.9
20260506173502 11 82 3.2 9.7 0.00 0.00 0.00 48 1017.0
20260506172959 11 265 3.2 9.7 0.00 0.00 0.00 49 1017.4
20260506172456 11 272 6.4 8.0 0.00 0.00 0.00 49 1017.2
20260506171952 10 286 3.2 6.4 0.00 0.00 0.00 52 1017.2
20260506171450 10 251 4.8 9.7 0.00 0.00 0.00 53 1017.5
20260506170947 10 288 4.8 8.0 0.00 0.00 0.00 50 1017.6
20260506170443 10 330 4.8 8.0 0.00 0.00 0.00 52 1017.6
20260506165936 10 303 0.0 8.0 0.00 0.00 0.00 53 1017.5
20260506165434 9 334 3.2 6.4 0.00 0.00 0.00 53 1017.6
20260506164929 9 0 3.2 8.0 0.00 0.00 0.00 53 1018.0
20260506164427 9 103 3.2 9.7 0.00 0.00 0.00 51 1018.0
20260506163919 8 71 0.0 8.0 0.00 0.00 0.00 54 1017.9
20260506163414 8 199 6.4 6.4 0.00 0.00 0.00 52 1018.1
20260506162909 8 1 6.4 8.0 0.00 0.00 0.00 53 1018.1
20260506162407 8 280 8.0 9.7 0.00 0.00 0.00 55 1018.2
20260506161904 8 286 3.2 6.4 0.00 0.00 0.00 54 1018.3
20260506161402 7 124 8.0 8.0 0.00 0.00 0.00 55 1018.5
20260506160859 7 283 3.2 9.7 0.00 0.00 0.00 56 1018.5
20260506160356 8 328 1.6 4.8 0.00 0.00 0.00 56 1018.5
20260506155854 7 263 6.4 8.0 0.00 0.00 0.00 57 1018.7
20260506155350 7 248 3.2 3.2 0.00 0.00 0.00 54 1018.7
20260506153508 6 334 0.0 4.8 0.00 0.00 0.00 60 1018.8
20260506153005 6 289 0.0 4.8 0.00 0.00 0.00 59 1018.9
20260506152502 6 172 0.0 4.8 0.00 0.00 0.00 60 1019.0
20260506152000 6 253 3.2 8.0 0.00 0.00 0.00 60 1019.2
20260506151458 6 270 3.2 6.4 0.00 0.00 0.00 62 1019.2
20260506150955 5 285 3.2 6.4 0.00 0.00 0.00 61 1019.1
20260506150450 6 6 4.8 6.4 0.00 0.00 0.00 61 1019.1
20260506145948 6 3 3.2 8.0 0.00 0.00 0.00 60 1019.2
20260506145444 5 314 8.0 8.0 0.00 0.00 0.00 62 1019.3
20260506144942 5 284 4.8 6.4 0.00 0.00 0.00 61 1019.2
20260506144438 5 297 4.8 8.0 0.00 0.00 0.00 62 1019.2
20260506143937 6 15 4.8 4.8 0.00 0.00 0.00 62 1019.1
20260506143433 6 180 0.0 3.2 0.00 0.00 0.00 60 1019.2
20260506142932 5 282 0.0 4.8 0.00 0.00 0.00 62 1019.3
20260506142429 5 264 4.8 6.4 0.00 0.00 0.00 64 1019.2
20260506141927 4 199 6.4 8.0 0.00 0.00 0.00 65 1019.2
20260506141425 4 228 6.4 8.0 0.00 0.00 0.00 65 1019.2
20260506140923 4 291 4.8 4.8 0.00 0.00 0.00 65 1019.2
20260506140420 3 255 3.2 3.2 0.00 0.00 0.00 66 1019.1
20260506135916 3 251 1.6 4.8 0.00 0.00 0.00 66 1019.1
20260506135414 3 253 0.0 4.8 0.00 0.00 0.00 66 1019.2
20260506134910 3 174 1.6 4.8 0.00 0.00 0.00 66 1019.0
20260506134406 3 69 0.0 3.2 0.00 0.00 0.00 66 1019.2
20260506133903 3 139 6.4 11.3 0.00 0.00 0.00 66 1019.2
20260506133400 2 113 4.8 19.3 0.00 0.00 0.00 67 1018.9
20260506132856 2 124 14.5 19.3 0.00 0.00 0.00 68 1019.2
20260506132353 2 119 8.0 14.5 0.00 0.00 0.00 68 1019.2
20260506131852 2 108 8.0 16.1 0.00 0.00 0.00 68 1019.0
20260506131347 2 107 8.0 16.1 0.00 0.00 0.00 69 1019.1
20260506130845 1 125 8.0 12.9 0.00 0.00 0.00 70 1019.1
20260506130341 1 145 1.6 4.8 0.00 0.00 0.00 71 1019.1
20260506125839 1 109 8.0 8.0 0.00 0.00 0.00 71 1019.2
20260506125337 1 113 6.4 14.5 0.00 0.00 0.00 71 1019.1
20260506124835 1 125 6.4 11.3 0.00 0.00 0.00 70 1018.8
20260506124332 1 150 3.2 9.7 0.00 0.00 0.00 70 1019.0
20260506123830 1 99 3.2 17.7 0.00 0.00 0.00 70 1019.0
20260506123328 1 113 9.7 16.1 0.00 0.00 0.00 70 1019.0
20260506122825 1 125 6.4 14.5 0.00 0.00 0.00 69 1018.8
20260506122322 1 111 11.3 14.5 0.00 0.00 0.00 69 1018.9
20260506121820 1 125 9.7 12.9 0.00 0.00 0.00 69 1018.7
20260506121317 1 97 12.9 14.5 0.00 0.00 0.00 70 1018.7
20260506120814 1 118 8.0 20.9 0.00 0.00 0.00 69 1018.7
20260506120312 1 110 8.0 12.9 0.00 0.00 0.00 70 1018.7
20260506115809 1 116 6.4 12.9 0.00 0.00 0.00 71 1018.7
20260506115307 1 121 8.0 12.9 0.00 0.00 0.00 71 1018.5
20260506114804 1 126 12.9 24.1 0.00 0.00 0.00 71 1018.7
20260506114302 1 131 6.4 20.9 0.00 0.00 0.00 69 1018.6
20260506113800 1 128 9.7 16.1 0.00 0.00 0.00 70 1018.6
20260506113258 1 120 9.7 14.5 0.00 0.00 0.00 68 1018.7
20260506112754 2 113 4.8 14.5 0.00 0.00 0.00 68 1018.9
20260506112252 2 97 6.4 11.3 0.00 0.00 0.00 67 1018.9
20260506111749 2 129 3.2 11.3 0.00 0.00 0.00 66 1018.9
20260506111247 2 112 6.4 9.7 0.00 0.00 0.00 67 1018.8
20260506110743 2 127 3.2 9.7 0.00 0.00 0.00 65 1018.7
20260506110241 2 155 4.8 6.4 0.00 0.00 0.00 65 1018.9
20260506105737 2 102 6.4 12.9 0.00 0.00 0.00 64 1018.8
20260506105234 2 124 8.0 12.9 0.00 0.00 0.00 62 1018.8
20260506104732 2 126 4.8 11.3 0.00 0.00 0.00 62 1018.7
20260506104230 3 154 3.2 8.0 0.00 0.00 0.00 61 1019.0
20260506103727 3 54 1.6 3.2 0.00 0.00 0.00 64 1019.0
20260506103224 3 96 3.2 8.0 0.00 0.00 0.00 63 1018.9
20260506102722 3 66 0.0 4.8 0.00 0.00 0.00 63 1018.9
20260506102220 3 240 0.0 0.0 0.00 0.00 0.00 63 1018.7
20260506101716 3 304 3.2 3.2 0.00 0.00 0.00 61 1018.8
20260506101212 3 166 0.0 3.2 0.00 0.00 0.00 60 1018.6
20260506100711 4 188 3.2 9.7 0.00 0.00 0.00 56 1018.8
20260506100208 4 131 1.6 4.8 0.00 0.00 0.00 55 1018.7
20260506095707 4 131 4.8 14.5 0.00 0.00 0.00 55 1018.6
20260506095203 4 100 6.4 11.3 0.00 0.00 0.00 55 1018.7
20260506094700 5 140 9.7 14.5 0.00 0.00 0.00 54 1018.7
20260506094158 5 98 9.7 9.7 0.00 0.00 0.00 54 1018.7
20260506093657 5 100 6.4 16.1 0.00 0.00 0.00 54 1018.5
20260506093153 5 90 3.2 9.7 0.00 0.00 0.00 54 1018.6
20260506092651 5 135 3.2 12.9 0.00 0.00 0.00 53 1018.6
20260506092148 5 105 8.0 8.0 0.00 0.00 0.00 55 1018.8
20260506091646 5 146 4.8 6.4 0.00 0.00 0.00 55 1018.6
20260506091143 5 123 0.0 14.5 0.00 0.00 0.00 53 1018.6
20260506090641 5 155 8.0 9.7 0.00 0.00 0.00 53 1018.8
20260506090137 5 135 6.4 20.9 0.00 0.00 0.00 52 1018.5
20260506085634 5 119 11.3 24.1 0.00 0.00 0.00 52 1018.8
20260506085130 5 131 9.7 20.9 0.00 0.00 0.00 53 1018.9
20260506084627 5 94 8.0 24.1 0.00 0.00 0.00 52 1018.7
20260506084124 5 137 11.3 20.9 0.00 0.00 0.00 53 1018.6
20260506083621 5 115 9.7 19.3 0.00 0.00 0.00 53 1018.6
20260506083119 5 90 3.2 17.7 0.00 0.00 0.00 53 1018.9
20260506082615 5 149 9.7 22.5 0.00 0.00 0.00 53 1018.8
20260506082111 5 111 14.5 29.0 0.00 0.00 0.00 53 1018.9
20260506081610 5 130 4.8 20.9 0.00 0.00 0.00 53 1018.8
20260506081107 5 122 12.9 19.3 0.00 0.00 0.00 53 1018.9
20260506080604 5 108 16.1 25.7 0.00 0.00 0.00 53 1018.8
20260506073044 5 98 11.3 14.5 0.00 0.00 0.00 53 1019.1
20260506072541 5 111 6.4 8.0 0.00 0.00 0.00 54 1019.0
20260506072039 6 141 4.8 12.9 0.00 0.00 0.00 53 1019.0
20260506071537 6 116 6.4 12.9 0.00 0.00 0.00 53 1019.0
20260506071034 6 118 4.8 6.4 0.00 0.00 0.00 54 1018.9
20260506070531 6 144 9.7 14.5 0.00 0.00 0.00 53 1019.0
20260506062508 6 98 3.2 12.9 0.00 0.00 0.00 54 1018.9
20260506062005 6 110 6.4 8.0 0.00 0.00 0.00 55 1019.0
20260506061501 6 116 4.8 14.5 0.00 0.00 0.00 54 1018.7
20260506060959 6 145 4.8 4.8 0.00 0.00 0.00 53 1018.7
20260506060457 7 115 14.5 27.4 0.00 0.00 0.00 51 1018.6
20260506050926 7 117 0.0 8.0 0.00 0.00 0.00 53 1018.0
20260506050424 7 101 3.2 4.8 0.00 0.00 0.00 53 1018.2
20260506044914 7 90 3.2 4.8 0.00 0.00 0.00 51 1018.0
20260506044412 7 78 1.6 4.8 0.00 0.00 0.00 51 1018.1
20260506043909 7 85 4.8 8.0 0.00 0.00 0.00 51 1017.9
20260506043406 8 111 4.8 20.9 0.00 0.00 0.00 49 1018.1
20260506042904 8 99 12.9 14.5 0.00 0.00 0.00 50 1018.0
20260506042403 8 125 9.7 24.1 0.00 0.00 0.00 49 1018.0
20260506041901 8 129 19.3 20.9 0.00 0.00 0.00 49 1017.7
20260506041358 8 112 11.3 25.7 0.00 0.00 0.00 50 1017.9
20260506040855 8 109 17.7 19.3 0.00 0.00 0.00 50 1017.9
20260506040352 8 109 9.7 14.5 0.00 0.00 0.00 50 1017.5
20260506035848 8 102 1.6 19.3 0.00 0.00 0.00 50 1017.7
20260506035346 8 118 9.7 17.7 0.00 0.00 0.00 50 1017.5
20260506034843 8 148 11.3 25.7 0.00 0.00 0.00 48 1017.6
20260506034340 9 108 11.3 33.8 0.00 0.00 0.00 48 1017.4
20260506033837 9 111 19.3 22.5 0.00 0.00 0.00 48 1017.5
20260506033334 10 90 8.0 16.1 0.00 0.00 0.00 47 1017.4
20260506032831 10 97 22.5 22.5 0.00 0.00 0.00 47 1017.2
20260506032327 9 102 14.5 22.5 0.00 0.00 0.00 48 1017.2
20260506031825 9 65 11.3 25.7 0.00 0.00 0.00 48 1017.0
20260506031322 9 110 12.9 33.8 0.00 0.00 0.00 48 1017.1
20260506030819 9 133 12.9 30.6 0.00 0.00 0.00 48 1016.9
20260506030317 10 122 8.0 33.8 0.00 0.00 0.00 48 1016.7
20260506025814 10 122 16.1 25.7 0.00 0.00 0.00 49 1016.7
20260506025310 10 110 6.4 25.7 0.00 0.00 0.00 48 1016.4
20260506024808 10 99 12.9 24.1 0.00 0.00 0.00 48 1016.5
20260506024304 10 115 17.7 27.4 0.00 0.00 0.00 47 1016.2
20260506023800 10 87 11.3 32.2 0.00 0.00 0.00 46 1016.5
20260506023258 10 94 14.5 35.4 0.00 0.00 0.00 45 1016.4
20260506022754 11 98 12.9 29.0 0.00 0.00 0.00 45 1016.2
20260506022252 11 95 9.7 46.7 0.00 0.00 0.00 45 1016.0
20260506021750 11 109 27.4 43.5 0.00 0.00 0.00 44 1016.1
20260506021246 11 126 29.0 38.6 0.00 0.00 0.00 44 1015.9
20260506020743 11 129 25.7 43.5 0.00 0.00 0.00 43 1015.9
20260506020241 11 119 6.4 41.8 0.00 0.00 0.00 43 1015.8
20260506015738 12 100 19.3 33.8 0.00 0.00 0.00 42 1015.9
20260506015236 12 128 11.3 32.2 0.00 0.00 0.00 42 1016.0
20260506014732 12 107 8.0 35.4 0.00 0.00 0.00 41 1015.7
20260506014229 12 107 9.7 25.7 0.00 0.00 0.00 42 1015.7
20260506013726 13 71 9.7 22.5 0.00 0.00 0.00 41 1015.8
20260506013223 13 107 11.3 24.1 0.00 0.00 0.00 41 1015.9
20260506012719 13 95 6.4 19.3 0.00 0.00 0.00 39 1015.6
20260506012216 13 128 14.5 20.9 0.00 0.00 0.00 40 1015.6
20260506011714 13 66 6.4 19.3 0.00 0.00 0.00 39 1015.9
20260506011210 13 56 12.9 17.7 0.00 0.00 0.00 39 1015.8
20260506010709 13 64 11.3 20.9 0.00 0.00 0.00 39 1015.7
20260506010206 13 69 9.7 24.1 0.00 0.00 0.00 38 1015.5
20260506005702 14 97 8.0 30.6 0.00 0.00 0.00 38 1015.6
20260506005159 15 42 9.7 20.9 0.00 0.00 0.00 37 1015.5
20260506004655 15 104 8.0 25.7 0.00 0.00 0.00 37 1015.5
20260506004153 15 102 4.8 12.9 0.00 0.00 0.00 34 1015.6
20260506003649 16 129 0.0 8.0 0.00 0.00 0.00 34 1015.5
20260506003145 16 20 8.0 16.1 0.00 0.00 0.00 29 1015.5
20260506002641 15 270 4.8 17.7 0.00 0.00 0.00 28 1015.2
20260506002137 16 3 3.2 9.7 0.00 0.00 0.00 28 1015.2
20260506001633 16 12 6.4 12.9 0.00 0.00 0.00 28 1015.4
20260506001131 15 342 8.0 17.7 0.00 0.00 0.00 28 1015.5
20260506000628 15 339 8.0 22.5 0.00 0.00 0.00 27 1015.5
20260506000125 15 308 9.7 27.4 0.00 0.00 0.00 27 1015.1
20260505235623 16 1 8.0 14.5 0.00 0.00 0.00 27 1015.4
20260505235120 16 1 14.5 20.9 0.00 0.00 0.00 27 1015.0
20260505234617 16 288 3.2 11.3 0.00 0.00 0.00 29 1015.0
20260505234114 15 69 8.0 24.1 0.00 0.00 0.00 28 1014.9
20260505233611 16 3 22.5 29.0 0.00 0.00 0.00 26 1015.4
20260505233109 15 307 4.8 24.1 0.00 0.00 0.00 27 1015.2
20260505232606 16 0 11.3 22.5 0.00 0.00 0.00 26 1015.1
20260505232104 16 328 4.8 29.0 0.00 0.00 0.00 25 1014.9
20260505231600 16 320 14.5 22.5 0.00 0.00 0.00 27 1015.1
20260505231059 16 345 12.9 30.6 0.00 0.00 0.00 27 1015.1
20260505230556 16 49 4.8 17.7 0.00 0.00 0.00 28 1014.9
20260505230052 16 24 4.8 11.3 0.00 0.00 0.00 28 1015.4
20260505225549 16 302 12.9 29.0 0.00 0.00 0.00 27 1015.0
20260505225045 16 302 16.1 32.2 0.00 0.00 0.00 27 1014.9
20260505224542 16 273 11.3 19.3 0.00 0.00 0.00 28 1015.0
20260505224040 16 354 9.7 24.1 0.00 0.00 0.00 28 1014.9
20260505223537 16 282 6.4 16.1 0.00 0.00 0.00 28 1015.0
20260505223033 16 39 8.0 22.5 0.00 0.00 0.00 26 1014.8
20260505222529 16 346 9.7 29.0 0.00 0.00 0.00 27 1014.9
20260505222025 16 36 3.2 30.6 0.00 0.00 0.00 29 1015.1
20260505221523 16 340 12.9 17.7 0.00 0.00 0.00 28 1015.1
20260505221019 16 319 9.7 27.4 0.00 0.00 0.00 29 1015.0
20260505220516 16 350 14.5 22.5 0.00 0.00 0.00 29 1015.0
20260505220014 16 309 9.7 19.3 0.00 0.00 0.00 28 1015.4
20260505215512 16 330 9.7 24.1 0.00 0.00 0.00 30 1015.1
20260505215010 16 315 8.0 19.3 0.00 0.00 0.00 31 1015.1
20260505214508 16 334 6.4 24.1 0.00 0.00 0.00 32 1015.0
20260505214004 16 286 16.1 27.4 0.00 0.00 0.00 32 1014.8
20260505213502 16 279 4.8 25.7 0.00 0.00 0.00 31 1014.9
20260505212958 16 353 6.4 20.9 0.00 0.00 0.00 29 1015.0
20260505212455 16 237 20.9 29.0 0.00 0.00 0.00 31 1014.8
20260505211951 16 290 9.7 20.9 0.00 0.00 0.00 33 1014.8
20260505211449 16 14 8.0 14.5 0.00 0.00 0.00 31 1014.8
20260505210945 16 262 9.7 17.7 0.00 0.00 0.00 30 1015.0
20260505210442 16 7 9.7 24.1 0.00 0.00 0.00 28 1014.8
20260505205939 16 303 9.7 12.9 0.00 0.00 0.00 33 1014.8
20260505205438 16 13 8.0 19.3 0.00 0.00 0.00 31 1015.0
20260505204934 17 250 8.0 16.1 0.00 0.00 0.00 31 1015.1
20260505204432 16 279 4.8 14.5 0.00 0.00 0.00 34 1015.0
20260505203929 16 324 4.8 20.9 0.00 0.00 0.00 31 1015.0
20260505203425 16 356 8.0 12.9 0.00 0.00 0.00 33 1015.0
20260505202921 15 45 4.8 11.3 0.00 0.00 0.00 34 1015.1
20260505202418 15 180 3.2 9.7 0.00 0.00 0.00 34 1014.8
20260505201915 14 200 8.0 14.5 0.00 0.00 0.00 34 1015.1
20260505201412 15 341 6.4 8.0 0.00 0.00 0.00 32 1014.8
20260505200910 16 106 3.2 8.0 0.00 0.00 0.00 30 1015.2
20260505200407 15 267 9.7 14.5 0.00 0.00 0.00 32 1015.0
20260505195902 15 0 0.0 8.0 0.00 0.00 0.00 31 1015.1
20260505195400 14 140 3.2 11.3 0.00 0.00 0.00 31 1015.1
20260505194857 15 318 4.8 4.8 0.00 0.00 0.00 32 1015.2
20260505194354 15 255 8.0 14.5 0.00 0.00 0.00 33 1015.4
20260505193849 14 293 9.7 16.1 0.00 0.00 0.00 33 1015.1
20260505193347 14 254 9.7 17.7 0.00 0.00 0.00 35 1015.2
20260505192844 15 288 11.3 20.9 0.00 0.00 0.00 33 1015.4
20260505192342 15 83 4.8 6.4 0.00 0.00 0.00 29 1015.5
20260505191839 15 299 9.7 12.9 0.00 0.00 0.00 30 1015.6
20260505191338 15 268 9.7 12.9 0.00 0.00 0.00 33 1015.5
20260505190834 15 7 6.4 8.0 0.00 0.00 0.00 32 1015.6